Weather in Salalah

Oman     17°01′09″N   54°07′13″E
temp.,
°C
wind,
m/s
gust,
m/s
humid.,
%
clouds,
%
prec.,
mm/h
press.,
hPa
HPBL,
m
16 september, thu
thu1601:00+25s129299 0.0 1004211
04:00+25sse1191100 0.1 1004229
07:00+25s1188100 0.0 1006219
10:00+28ssw3377100 0.0 1006341
13:00+28s447849 0.0 1004521
16:00+28s548369 0.0 1002484
19:00+26sse3392100 0.0 1003283
22:00+26s1189100 0.1 1005304
17 september, fri
fri1701:00+25ese1190100 0.0 1005257
04:00+25ssw1289100 0.1 1003173
07:00+25sw3391100 0.0 1005267
10:00+27ssw3480100 0.0 1006405
13:00+28s4478100 0.0 1004481
16:00+27ssw5581100 0.0 1003460
19:00+26sw338899 0.0 1004307
22:00+26sw118789 0.0 1005207
18 september, sat
sat1801:00+25ssw228975 0.0 1004186
04:00+25sw229197 0.0 1004159
07:00+25ssw239045 0.0 1006189
10:00+27ssw347796 0.0 1007380
13:00+29s547190 0.0 1004463
16:00+27s447834 0.0 1004466
19:00+26ssw338790 0.0 1005371
22:00+26ssw238476 0.0 1007301
19 september, sun
sun1901:00+25sw238237 0.0 1006254
04:00+25sw238723 0.0 1006240
07:00+25sw228694 0.0 1007217
10:00+27ssw337312 0.0 1008363
13:00+28s557118 0.0 1005471
16:00+27s447827 0.0 1005477
19:00+25ssw238653 0.0 1006373
22:00+26ssw228345 0.1 1007304
20 september, mon
mon2001:00+25sw228556 0.1 1007316
04:00+25sw228462 0.1 1006299
07:00+25wsw238244 0.0 1008282
10:00+27ssw447132 0.1 1008487
13:00+28ssw55687 0.0 1006554
16:00+27ssw557617 0.0 1004515
19:00+26sw338527 0.0 1006428
22:00+26ssw338570 0.1 1008388